Home > Weather > Dar es Salaam > Past weeks

Flag for Tanzania Past Weather in Dar es Salaam, Tanzania — Yesterday and Last 2 Weeks

Now
73 °F

Passing clouds.


Feels Like: 72 °F
Forecast: 73 / 84 °F
Wind: 2 mph from Southwest

Location: Dar Es Salaam Airport

Current Time: Jul 1, 2016 at 12:26:26 AM

Latest Report: Jun 30, 2016 at 11:00 PM


Visibility: N/A

Pressure: 30.09 "Hg

Humidity: 89%

Dew Point: 70 °F

Location of Dar es SalaamLocation

Past Weather in Dar es Salaam — Graph

°F

Dar es Salaam Temperature Yesterday

Maximum temperature yesterday: 86 °F (at 1:00 PM)
Minimum temperature yesterday: 68 °F (at 3:00 AM)
Average temperature yesterday: 78 °F

High & Low Weather Summary for the Past Weeks

 TemperatureHumidityPressure
High90 °F (Jun 16, 4:00 PM)100% (Jun 16, 7:00 AM)30.15 "Hg (Jun 16, 7:00 AM)
Low68 °F (Jun 16, 6:00 AM)43% (Jun 30, 1:00 PM)29.95 "Hg (Jun 16, 3:00 PM)
Average78 °F77%30.06 "Hg
* Reported Jun 16 6:00 AM — Jun 30 10:00 PM, Dar es Salaam, Weather by CustomWeather, © 2016

Note: Actual official high and low records may vary slightly from our data, if they occured in-between our weather recording intervals... More about our weather records

Advertising

Dar es Salaam Weather History for the Previous 24 Hours

Scroll right to see more
 ConditionsComfort  
Time TempWeatherWind HumidityBarometerVisibility
10:00 PM
Thu, Jun 30
73 °FPassing clouds.3 mph89%30.12 "HgN/A
9:00 PM73 °FPassing clouds.6 mph89%30.09 "HgN/A
8:00 PM75 °FPassing clouds.8 mph83%30.09 "HgN/A
7:00 PM77 °FPassing clouds.8 mph79%30.07 "HgN/A
6:00 PM79 °FScattered clouds.12 mph74%30.07 "HgN/A
5:00 PM81 °FScattered clouds.16 mph70%30.07 "HgN/A
4:00 PM84 °FPartly sunny.15 mph62%30.07 "HgN/A
3:00 PM84 °FPartly sunny.16 mph58%30.07 "HgN/A
2:00 PM86 °FScattered clouds.20 mph46%30.07 "HgN/A
1:00 PM86 °FScattered clouds.14 mph43%30.09 "HgN/A
12:00 PM84 °FScattered clouds.16 mph48%30.12 "HgN/A
11:00 AM82 °FScattered clouds.13 mph62%30.12 "HgN/A
10:00 AM79 °FScattered clouds.10 mph74%30.12 "HgN/A
9:00 AM77 °FPassing clouds.12 mph79%30.12 "HgN/A
8:00 AM72 °FPartly sunny.9 mph88%30.12 "HgN/A
6:00 AM68 °FPassing clouds.6 mph94%30.07 "HgN/A
3:00 AM68 °FPassing clouds.No wind94%30.07 "HgN/A
12:00 AM70 °FPassing clouds.7 mph94%30.09 "HgN/A
Weather by CustomWeather, © 2016

See weather overviewHow to use our weather pages